| time (UTC) | temp F | wind direction | speed MPH | gust MPH | rain 1hr in | rain 24hr in | rain mn in | humidity % | barometer mb |
| 20260831004558 | 80 | 354 | 0.0 | 2.0 | 0.00 | 0.00 | 0.00 | 36 | 1008.9 |
| 20260831003058 | 79 | 30 | 0.0 | 3.0 | 0.00 | 0.00 | 0.00 | 37 | 1008.8 |
| 20260831001600 | 80 | 328 | 1.0 | 3.0 | 0.00 | 0.00 | 0.00 | 35 | 1008.9 |
| 20260831000110 | 81 | 12 | 0.0 | 4.0 | 0.00 | 0.00 | 0.00 | 35 | 1009.0 |
| 20260830234553 | 82 | 10 | 1.0 | 3.0 | 0.00 | 0.00 | 0.00 | 34 | 1009.0 |
| 20260830233053 | 82 | 309 | 0.0 | 2.0 | 0.00 | 0.00 | 0.00 | 34 | 1009.0 |
| 20260830231556 | 83 | 281 | 2.0 | 5.0 | 0.00 | 0.00 | 0.00 | 34 | 1009.0 |
| 20260830230055 | 83 | 248 | 0.0 | 5.0 | 0.00 | 0.00 | 0.00 | 33 | 1009.2 |
| 20260830224549 | 84 | 356 | 1.0 | 3.0 | 0.00 | 0.00 | 0.00 | 31 | 1009.3 |
| 20260830223119 | 85 | 360 | 1.0 | 6.0 | 0.00 | 0.00 | 0.00 | 31 | 1009.3 |
| 20260830221553 | 85 | 281 | 1.0 | 4.0 | 0.00 | 0.00 | 0.00 | 31 | 1009.6 |
| 20260830220047 | 86 | 9 | 0.0 | 3.0 | 0.00 | 0.00 | 0.00 | 32 | 1009.7 |
| 20260830214546 | 86 | 359 | 0.0 | 4.0 | 0.00 | 0.00 | 0.00 | 30 | 1009.8 |
| 20260830213046 | 86 | 8 | 1.0 | 6.0 | 0.00 | 0.00 | 0.00 | 31 | 1009.9 |
| 20260830211544 | 86 | 314 | 0.0 | 2.0 | 0.00 | 0.00 | 0.00 | 30 | 1010.0 |
| 20260830210044 | 87 | 314 | 1.0 | 4.0 | 0.00 | 0.00 | 0.00 | 30 | 1009.9 |
| 20260830204543 | 87 | 262 | 1.0 | 3.0 | 0.00 | 0.00 | 0.00 | 30 | 1010.0 |
| 20260830203043 | 86 | 89 | 0.0 | 5.0 | 0.00 | 0.00 | 0.00 | 31 | 1010.0 |
| 20260830201546 | 87 | 328 | 1.0 | 4.0 | 0.00 | 0.00 | 0.00 | 31 | 1009.9 |
| 20260830200043 | 87 | 31 | 1.0 | 3.0 | 0.00 | 0.00 | 0.00 | 30 | 1010.0 |
| 20260830194552 | 88 | 333 | 0.0 | 2.0 | 0.00 | 0.00 | 0.00 | 30 | 1010.1 |
| 20260830193050 | 87 | 318 | 0.0 | 2.0 | 0.00 | 0.00 | 0.00 | 32 | 1010.1 |
| 20260830191538 | 87 | 293 | 1.0 | 3.0 | 0.00 | 0.00 | 0.00 | 31 | 1010.2 |
| 20260830190038 | 87 | 332 | 0.0 | 3.0 | 0.00 | 0.00 | 0.00 | 32 | 1010.3 |
| 20260830184538 | 86 | 340 | 0.0 | 3.0 | 0.00 | 0.00 | 0.00 | 32 | 1010.5 |
| 20260830183035 | 87 | 359 | 0.0 | 2.0 | 0.00 | 0.00 | 0.00 | 33 | 1010.5 |
| 20260830181534 | 86 | 115 | 0.0 | 2.0 | 0.00 | 0.00 | 0.00 | 32 | 1010.6 |
| 20260830180031 | 85 | 273 | 1.0 | 3.0 | 0.00 | 0.00 | 0.00 | 34 | 1010.5 |
| 20260830174536 | 84 | 297 | 0.0 | 2.0 | 0.00 | 0.00 | 0.00 | 34 | 1010.6 |
| 20260830173024 | 82 | 316 | 0.0 | 2.0 | 0.00 | 0.00 | 0.00 | 36 | 1010.5 |
| 20260830171523 | 81 | 165 | 0.0 | 1.0 | 0.00 | 0.00 | 0.00 | 38 | 1010.6 |
| 20260830170019 | 79 | 165 | 0.0 | 1.0 | 0.00 | 0.00 | 0.00 | 41 | 1010.7 |
| 20260830164513 | 76 | 166 | 0.0 | 1.0 | 0.00 | 0.00 | 0.00 | 45 | 1010.6 |
| 20260830163009 | 74 | 167 | 0.0 | 1.0 | 0.00 | 0.00 | 0.00 | 49 | 1010.6 |
| 20260830161507 | 73 | 167 | 0.0 | 1.0 | 0.00 | 0.00 | 0.00 | 51 | 1010.7 |
| 20260830160004 | 69 | 141 | 0.0 | 1.0 | 0.00 | 0.00 | 0.00 | 53 | 1010.8 |
| 20260830154600 | 67 | 139 | 0.0 | 2.0 | 0.00 | 0.00 | 0.00 | 55 | 1010.8 |
| 20260830153055 | 64 | 160 | 0.0 | 2.0 | 0.00 | 0.00 | 0.00 | 56 | 1010.9 |
| 20260830151555 | 60 | 132 | 0.0 | 2.0 | 0.00 | 0.00 | 0.00 | 60 | 1011.0 |
| 20260830150051 | 56 | 138 | 0.0 | 2.0 | 0.00 | 0.00 | 0.00 | 64 | 1011.0 |
| 20260830144550 | 55 | 143 | 1.0 | 3.0 | 0.00 | 0.00 | 0.00 | 65 | 1011.1 |
| 20260830143048 | 54 | 145 | 1.0 | 4.0 | 0.00 | 0.00 | 0.00 | 66 | 1011.0 |
| 20260830141549 | 53 | 113 | 0.0 | 2.0 | 0.00 | 0.00 | 0.00 | 67 | 1010.9 |
| 20260830140048 | 53 | 131 | 0.0 | 3.0 | 0.00 | 0.00 | 0.00 | 67 | 1010.7 |
| 20260830134547 | 52 | 152 | 0.0 | 4.0 | 0.00 | 0.00 | 0.00 | 68 | 1010.5 |
| 20260830133054 | 52 | 138 | 0.0 | 3.0 | 0.00 | 0.00 | 0.00 | 69 | 1010.4 |
| 20260830131549 | 52 | 150 | 0.0 | 3.0 | 0.00 | 0.00 | 0.00 | 70 | 1010.4 |
| 20260830130053 | 52 | 124 | 0.0 | 2.0 | 0.00 | 0.00 | 0.00 | 70 | 1010.3 |
| 20260830124543 | 52 | 135 | 0.0 | 2.0 | 0.00 | 0.00 | 0.00 | 71 | 1010.3 |
| 20260830123042 | 52 | 142 | 0.0 | 3.0 | 0.00 | 0.00 | 0.00 | 71 | 1010.2 |
| 20260830121541 | 52 | 132 | 0.0 | 3.0 | 0.00 | 0.00 | 0.00 | 71 | 1010.2 |
| 20260830120045 | 53 | 154 | 0.0 | 1.0 | 0.00 | 0.00 | 0.00 | 71 | 1010.2 |
| 20260830114539 | 52 | 141 | 0.0 | 1.0 | 0.00 | 0.00 | 0.00 | 72 | 1010.3 |
| 20260830113036 | 52 | 126 | 0.0 | 3.0 | 0.00 | 0.00 | 0.00 | 72 | 1010.3 |
| 20260830111536 | 53 | 129 | 0.0 | 3.0 | 0.00 | 0.00 | 0.00 | 71 | 1010.3 |
| 20260830110035 | 53 | 138 | 0.0 | 3.0 | 0.00 | 0.00 | 0.00 | 71 | 1010.4 |
| 20260830104533 | 53 | 131 | 0.0 | 3.0 | 0.00 | 0.00 | 0.00 | 71 | 1010.4 |
| 20260830103032 | 53 | 135 | 0.0 | 1.0 | 0.00 | 0.00 | 0.00 | 71 | 1010.4 |
| 20260830101533 | 53 | 132 | 0.0 | 1.0 | 0.00 | 0.00 | 0.00 | 70 | 1010.3 |
| 20260830100046 | 53 | 134 | 0.0 | 2.0 | 0.00 | 0.00 | 0.00 | 70 | 1010.4 |
| 20260830094530 | 53 | 135 | 0.0 | 1.0 | 0.00 | 0.00 | 0.00 | 70 | 1010.3 |
| 20260830093031 | 53 | 134 | 0.0 | 1.0 | 0.00 | 0.00 | 0.00 | 69 | 1010.2 |
| 20260830091535 | 54 | 132 | 0.0 | 2.0 | 0.00 | 0.00 | 0.00 | 69 | 1010.2 |
| 20260830090024 | 54 | 132 | 0.0 | 2.0 | 0.00 | 0.00 | 0.00 | 68 | 1010.2 |
| 20260830084537 | 54 | 139 | 1.0 | 3.0 | 0.00 | 0.00 | 0.00 | 68 | 1010.3 |
| 20260830083020 | 54 | 144 | 1.0 | 2.0 | 0.00 | 0.00 | 0.00 | 67 | 1010.4 |
| 20260830081520 | 55 | 136 | 1.0 | 3.0 | 0.00 | 0.00 | 0.00 | 67 | 1010.5 |
| 20260830080019 | 55 | 134 | 0.0 | 2.0 | 0.00 | 0.00 | 0.00 | 66 | 1010.6 |
| 20260830074516 | 56 | 141 | 0.0 | 1.0 | 0.00 | 0.00 | 0.00 | 65 | 1010.5 |
| 20260830073011 | 57 | 141 | 0.0 | 2.0 | 0.00 | 0.00 | 0.00 | 62 | 1010.4 |
| 20260830071510 | 57 | 141 | 0.0 | 2.0 | 0.00 | 0.00 | 0.00 | 62 | 1010.4 |
| 20260830070007 | 57 | 143 | 0.0 | 3.0 | 0.00 | 0.00 | 0.00 | 61 | 1010.3 |
| 20260830064507 | 58 | 138 | 1.0 | 2.0 | 0.00 | 0.00 | 0.00 | 60 | 1010.3 |
| 20260830063006 | 58 | 132 | 1.0 | 2.0 | 0.00 | 0.00 | 0.00 | 60 | 1010.3 |
| 20260830061508 | 58 | 153 | 1.0 | 3.0 | 0.00 | 0.00 | 0.00 | 60 | 1010.3 |
| 20260830060008 | 59 | 145 | 1.0 | 3.0 | 0.00 | 0.00 | 0.00 | 58 | 1010.3 |
| 20260830054508 | 59 | 135 | 0.0 | 3.0 | 0.00 | 0.00 | 0.00 | 58 | 1010.3 |
| 20260830053007 | 60 | 141 | 1.0 | 2.0 | 0.00 | 0.00 | 0.00 | 57 | 1010.4 |
| 20260830051505 | 60 | 134 | 0.0 | 3.0 | 0.00 | 0.00 | 0.00 | 56 | 1010.3 |
| 20260830050005 | 61 | 129 | 1.0 | 3.0 | 0.00 | 0.00 | 0.00 | 55 | 1010.5 |
| 20260830044505 | 62 | 145 | 1.0 | 4.0 | 0.00 | 0.00 | 0.00 | 53 | 1010.5 |
| 20260830043004 | 63 | 135 | 1.0 | 3.0 | 0.00 | 0.00 | 0.00 | 52 | 1010.5 |
| 20260830041505 | 64 | 129 | 1.0 | 4.0 | 0.00 | 0.00 | 0.00 | 51 | 1010.5 |
| 20260830040003 | 64 | 133 | 0.0 | 2.0 | 0.00 | 0.00 | 0.00 | 50 | 1010.3 |
| 20260830034503 | 65 | 44 | 0.0 | 1.0 | 0.00 | 0.00 | 0.00 | 48 | 1010.0 |
| 20260830033005 | 66 | 39 | 0.0 | 1.0 | 0.00 | 0.00 | 0.00 | 45 | 1010.0 |
| 20260830031504 | 68 | 40 | 0.0 | 1.0 | 0.00 | 0.00 | 0.00 | 43 | 1009.9 |
| 20260830030007 | 69 | 39 | 0.0 | 0.0 | 0.00 | 0.00 | 0.00 | 40 | 1009.8 |
| 20260830024503 | 71 | 39 | 0.0 | 0.0 | 0.00 | 0.00 | 0.00 | 35 | 1009.7 |
| 20260830023004 | 72 | 40 | 0.0 | 0.0 | 0.00 | 0.00 | 0.00 | 34 | 1009.7 |
| 20260830021502 | 73 | 40 | 0.0 | 1.0 | 0.00 | 0.00 | 0.00 | 35 | 1009.8 |
| 20260830020103 | 75 | 40 | 0.0 | 1.0 | 0.00 | 0.00 | 0.00 | 35 | 1009.9 |
| 20260830014600 | 76 | 40 | 0.0 | 1.0 | 0.00 | 0.00 | 0.00 | 31 | 1010.0 |
| 20260830013100 | 77 | 19 | 0.0 | 1.0 | 0.00 | 0.00 | 0.00 | 32 | 1010.0 |
| 20260830011559 | 79 | 5 | 0.0 | 2.0 | 0.00 | 0.00 | 0.00 | 31 | 1010.0 |
| 20260830010056 | 81 | 23 | 0.0 | 2.0 | 0.00 | 0.00 | 0.00 | 30 | 1010.1 |